Temperature
21 20 19 18 18 17 17 16 16 16 16 16 16 16 16 16 16 16 16 16 15 15 15 15 15 15 15 14 14 14 14 14 14 14 14 14 14 14 14 14 14 14 14
21 21 20 18 18 17 16 16 16 16 16 16 16 16 16 16 15 15 15 15 15 15 15 15 15 15 14 14 14 14 14 14 14 14 14 14 14 13 13 13 13 13 13
21 20 19 18 18 17 16 16 16 16 16 16 16 16 16 16 15 15 15 15 15 15 15 14 14 14 14 14 14 14 14 14 14 14 14 14 13 13 13 13 13 13 13
20 20 19 18 18 17 16 16 16 16 16 16 16 16 16 15 15 15 15 15 14 14 14 14 14 14 14 14 14 14 14 14 14 14 14 13 13 13 13 13 13 13 13
20 19 19 18 18 17 16 16 16 16 15 15 15 15 15 15 15 15 14 14 14 14 14 14 14 14 14 14 13 14 13 14 13 13 13 13 13 13 12 12 12 13 13
20 19 19 18 17 17 16 16 16 16 15 15 15 15 15 15 15 14 14 14 14 14 14 14 14 14 14 13 13 13 13 13 13 13 13 13 13 12 12 12 12 12 12
19 19 18 17 17 17 16 16 16 16 15 15 15 15 15 15 15 14 14 14 14 14 14 13 14 14 14 13 13 13 13 13 13 13 13 13 12 12 12 12 12 12 12
19 18 18 17 17 16 16 16 16 16 15 15 15 15 15 14 14 14 14 14 14 14 13 13 13 13 13 13 13 13 13 13 13 13 13 13 12 12 12 11 11 11 12
18 18 17 17 16 16 16 16 16 16 15 15 15 15 14 14 14 14 14 13 13 13 13 13 13 13 13 13 13 13 13 13 13 12 12 12 12 12 11 11 11 11 11
18 17 17 17 16 16 16 15 15 15 15 15 15 14 14 14 14 14 14 13 13 13 13 13 13 12 13 13 12 12 12 13 12 12 12 12 12 12 11 11 11 11 11
17 17 17 17 16 16 15 15 15 15 15 15 14 14 14 14 14 14 13 13 13 13 12 12 12 12 12 12 12 12 12 12 12 12 12 12 12 11 11 11 11 11 11
17 17 17 17 16 16 15 15 15 15 15 15 14 14 14 14 14 13 13 13 13 12 12 12 12 12 12 12 12 12 12 12 12 12 12 12 11 11 11 11 11 11 11
17 17 17 16 16 16 16 15 15 15 15 15 14 14 14 14 13 13 13 13 12 12 12 12 12 12 12 12 12 12 12 12 12 12 11 11 11 11 11 11 11 11 10
16 16 16 16 16 16 16 15 15 15 15 15 14 14 14 14 13 13 13 13 13 12 12 12 12 12 12 12 12 12 12 12 12 12 11 11 11 11 11 10 10 10 10
16 16 16 16 16 16 15 15 15 15 15 15 14 14 14 14 14 13 13 13 12 12 12 12 12 12 12 12 11 11 11 11 11 11 11 11 11 11 10 10 10 10 10
16 16 16 16 16 15 15 15 15 15 15 14 14 14 14 14 13 13 13 13 12 12 12 12 12 12 12 11 11 11 11 11 11 11 11 11 11 11 10 10 10 10 10
16 16 16 16 16 15 15 15 15 15 15 14 14 14 14 13 13 13 13 13 12 12 12 11 11 11 11 11 11 11 11 11 11 11 11 11 11 11 10 10 10 10 10
15 16 15 15 15 15 15 15 15 14 14 14 14 14 13 13 13 13 13 13 12 12 12 11 11 11 11 11 11 11 11 11 11 11 11 11 11 11 11 10 10 10 10
15 15 15 15 15 15 15 15 15 14 14 14 14 14 13 13 13 13 13 13 12 12 11 11 11 11 11 11 11 11 11 11 11 11 11 11 11 11 11 11 10 10 10
15 15 15 15 15 15 14 14 14 14 14 14 14 14 13 13 13 13 12 12 12 11 11 11 11 11 11 11 11 10 10 10 11 11 11 11 11 11 11 10 10 10 10
14 14 14 15 15 14 14 14 14 14 14 14 14 13 13 13 13 12 12 12 12 11 11 11 11 11 11 11 10 10 10 10 10 11 11 11 11 11 11 10 10 10 10
14 14 14 14 14 14 14 14 13 13 13 13 13 13 13 13 13 12 12 12 12 12 11 11 11 11 10 10 10 9 9 10 10 11 11 11 11 11 11 11 10 10 10
14 14 14 14 14 14 13 13 13 12 12 12 13 13 13 13 12 12 12 12 12 11 11 11 11 10 10 10 10 9 9 9 10 10 11 11 11 11 11 11 10 10 10
13 13 13 13 13 13 13 13 12 12 12 12 13 13 13 13 12 12 12 12 11 11 11 11 11 10 10 9 9 9 9 9 9 9 10 10 10 11 11 10 10 10 10
13 13 13 13 13 13 13 12 12 12 12 12 12 12 12 12 12 12 12 11 11 11 11 11 10 10 10 9 9 9 9 9 8 8 9 10 10 10 10 10 10 10 10
12 12 12 13 12 12 12 12 12 12 12 12 12 12 12 12 12 12 12 11 11 11 11 10 10 10 10 9 9 9 9 8 8 8 8 9 9 10 10 10 10 10 10
Wind_Speed
6 8 16 17 17 16 16 15 14 14 14 13 14 14 14 13 13 13 13 12 12 11 11 11 11 12 12 12 12 12 12 12 11 11 12 12 12 12 12 12 11 11 12
7 11 17 17 18 17 16 15 15 14 13 13 13 13 13 13 13 13 12 12 12 11 11 11 11 11 11 12 12 11 11 11 11 11 11 11 11 11 11 11 11 9 11
7 12 15 18 18 17 16 16 15 14 14 13 13 13 12 13 13 12 12 12 11 11 10 10 11 11 11 11 11 11 10 10 10 10 10 9 9 10 10 10 10 10 11
7 11 12 17 18 17 17 16 16 15 14 13 13 12 12 13 12 12 12 11 11 10 10 10 10 10 10 10 10 10 10 10 10 10 8 7 7 9 10 9 9 9 9
6 9 11 17 18 17 17 17 16 15 15 14 13 13 12 12 12 12 12 11 10 10 9 9 10 10 10 9 10 10 9 9 9 9 7 6 5 8 8 8 8 8 8
6 7 10 16 18 17 17 17 16 16 15 15 14 13 13 12 12 12 12 11 10 10 10 10 10 10 9 9 9 9 9 9 8 8 6 5 4 6 7 7 7 7 8
5 5 9 15 16 17 16 16 16 16 16 15 15 14 14 13 12 12 12 11 10 10 10 10 10 10 9 9 9 9 9 9 8 7 5 4 4 6 7 7 7 6 7
6 5 7 13 15 15 15 16 16 16 15 16 15 15 15 14 13 12 12 12 11 11 11 11 11 10 10 10 10 10 9 9 8 6 5 4 5 6 6 7 6 6 6
4 5 5 8 11 14 15 15 15 15 15 15 15 15 15 14 14 14 13 12 12 12 11 11 11 11 10 10 11 10 9 8 7 6 5 5 6 6 6 6 6 6 6
4 5 5 6 7 9 11 13 14 15 15 15 15 14 13 14 14 14 13 13 13 12 12 11 12 11 11 10 10 10 9 8 7 6 6 6 7 8 7 7 7 7 6
5 5 6 6 6 7 8 11 12 13 14 14 13 13 12 10 11 12 12 13 14 13 13 13 12 12 11 10 10 10 9 8 7 6 6 8 9 9 9 8 8 8 7
8 8 7 8 7 6 7 8 8 10 11 11 10 10 9 9 9 10 13 14 14 14 14 14 13 11 9 7 8 9 7 8 7 7 8 10 10 11 10 10 10 10 9
8 8 9 9 8 7 6 5 5 6 7 8 9 10 9 8 7 7 8 10 12 12 10 10 9 7 7 6 6 6 7 8 7 8 9 11 12 12 12 12 11 11 11
7 9 9 9 9 8 7 6 5 4 5 5 8 10 8 5 5 5 5 6 7 7 6 6 5 6 7 8 8 7 7 7 8 9 10 13 14 14 14 13 13 13 12
8 10 10 10 10 9 8 7 7 6 6 6 7 10 10 6 6 5 5 6 6 7 7 6 5 6 6 6 7 7 7 8 9 10 11 13 15 15 15 15 15 14 14
8 9 9 10 11 10 9 9 8 7 7 7 7 10 12 9 7 6 6 5 6 7 7 7 7 6 6 5 6 7 8 8 9 11 12 13 15 16 17 17 17 16 16
7 7 8 10 10 10 10 10 8 7 7 7 8 10 12 11 9 8 7 7 7 8 8 6 6 6 6 6 7 7 7 8 9 10 12 13 14 16 18 19 19 18 17
5 6 7 7 8 10 10 9 8 7 8 8 8 9 12 13 12 9 8 8 8 7 6 5 5 6 7 7 6 6 6 6 8 10 11 12 13 14 16 19 20 20 19
5 5 6 7 8 9 9 8 7 7 8 8 8 9 11 13 13 10 9 8 8 7 6 7 6 6 7 7 7 6 6 7 7 8 9 11 13 14 15 17 20 20 20
4 4 5 6 6 6 6 5 5 6 7 7 8 9 11 11 13 11 9 9 9 7 7 7 7 6 6 6 6 6 6 7 7 8 10 9 12 14 15 16 15 17 20
3 3 4 5 5 4 5 6 6 7 7 7 9 10 11 12 12 12 10 9 10 10 10 9 7 7 6 4 3 3 5 7 9 9 8 8 10 12 13 15 14 14 14
3 4 5 5 5 5 6 6 6 5 5 7 7 9 11 11 12 12 12 11 11 10 10 10 8 6 5 5 4 2 3 4 6 9 8 9 10 8 10 13 14 14 14
4 5 5 6 6 6 6 4 3 2 3 4 7 8 10 11 12 12 12 12 11 11 11 12 11 10 8 6 5 4 4 6 3 4 7 9 9 8 9 9 12 14 15
5 5 5 5 5 6 6 5 6 6 7 8 8 8 8 10 11 12 12 13 12 11 11 12 12 10 8 7 6 6 5 3 3 3 3 5 7 8 9 8 9 11 14
4 4 5 5 5 5 5 7 7 8 8 6 5 7 8 9 11 12 13 12 13 12 12 11 12 12 10 10 7 5 6 4 4 4 5 4 4 6 7 8 8 8 12
4 4 5 5 6 5 5 7 8 9 9 7 7 7 7 7 8 11 13 13 13 12 12 12 13 13 12 11 9 7 6 5 5 6 8 7 6 5 6 6 8 8 10
Wind_Direction
204 189 185 178 172 169 168 165 160 155 152 151 151 150 148 146 144 142 139 137 136 133 131 130 127 127 126 124 120 115 111 108 106 104 104 105 105 102 98 94 92 88 91
172 177 184 178 174 173 172 169 164 158 154 153 152 152 151 149 147 147 144 141 138 136 134 132 130 130 128 126 124 120 116 111 108 104 101 103 105 106 105 101 100 101 97
161 174 184 178 176 175 174 171 166 163 161 159 156 156 156 155 154 152 150 146 144 139 138 138 135 134 132 130 128 125 121 117 113 109 100 95 105 109 107 105 104 102 100
164 173 182 180 177 177 177 173 170 168 166 164 161 160 161 160 161 160 157 153 150 145 143 143 143 142 139 137 134 130 127 122 118 111 101 99 107 115 113 112 110 106 104
163 174 182 181 181 181 181 178 174 173 171 170 169 168 168 167 166 166 166 161 156 152 151 150 149 149 147 146 143 137 133 128 123 113 106 105 109 123 122 120 116 115 113
165 172 183 183 184 185 185 182 180 178 178 178 177 175 175 175 173 171 169 167 166 164 160 159 157 157 154 155 153 147 141 133 123 116 114 114 119 135 134 131 126 126 125
168 172 185 186 187 189 188 186 185 183 183 184 183 182 182 181 179 177 174 174 176 175 173 172 170 166 164 167 164 156 146 137 131 129 132 138 150 151 152 150 143 138 137
168 171 184 192 193 192 192 191 189 187 188 189 190 190 190 189 185 184 184 184 184 183 184 185 183 178 175 175 171 163 152 144 141 143 151 166 175 170 170 168 163 157 148
169 173 185 194 197 198 199 198 197 196 195 194 194 195 195 193 192 192 191 191 189 189 191 194 193 187 186 184 179 172 163 155 150 160 169 186 193 189 185 181 180 173 165
181 188 194 197 196 197 200 202 203 201 200 199 199 196 195 194 196 195 195 196 196 196 196 199 201 195 193 190 186 179 169 160 163 174 186 203 207 204 200 196 193 188 182
208 207 202 201 201 197 198 203 203 204 203 201 201 198 194 194 195 196 197 200 202 203 202 203 205 203 197 193 190 183 172 166 174 187 201 213 214 214 211 208 206 202 198
220 213 207 205 204 200 202 198 201 202 201 200 197 194 192 189 192 194 199 203 207 207 207 208 208 207 199 188 189 184 175 178 186 201 214 221 222 222 219 216 215 210 210
224 217 210 208 204 201 202 194 196 198 196 196 193 190 186 183 187 191 194 203 207 207 205 206 205 198 189 184 182 183 186 190 200 212 222 227 228 228 226 224 220 217 217
229 227 215 208 206 205 203 201 197 197 200 200 196 191 184 184 188 189 192 197 198 198 193 192 189 190 192 194 191 191 197 202 210 217 227 233 232 233 233 230 225 223 224
234 232 222 209 209 206 204 206 207 204 205 205 198 198 192 193 199 198 198 197 198 197 192 190 193 194 197 199 200 200 207 211 216 220 229 235 236 236 237 236 234 230 229
240 237 228 213 212 207 206 208 209 207 205 202 205 206 201 200 200 201 204 202 202 199 199 198 199 201 205 205 209 209 214 216 221 223 230 237 239 239 239 240 240 236 234
244 244 236 219 211 209 211 211 210 206 203 208 211 209 207 206 203 203 207 211 210 204 200 201 206 203 210 213 218 219 219 220 221 226 230 234 238 241 242 243 243 240 239
249 248 244 231 212 212 215 215 212 207 207 212 211 211 212 212 208 205 211 216 207 198 196 203 208 211 218 217 221 224 224 222 224 228 230 231 233 237 241 242 242 242 242
248 248 248 234 217 214 216 218 215 211 212 214 211 213 214 213 211 210 215 215 201 201 206 211 214 209 218 221 226 227 225 227 228 230 230 230 230 232 235 240 241 242 243
261 255 254 243 227 215 211 214 217 219 219 217 217 217 214 214 211 212 216 211 201 205 211 212 217 215 216 214 227 237 234 233 230 229 232 233 231 231 232 234 237 240 242
279 273 267 256 239 213 207 208 214 222 224 224 224 222 218 217 213 213 217 213 207 211 215 213 214 216 218 193 200 252 257 237 235 234 231 230 232 231 228 229 231 233 237
269 263 258 253 243 222 217 216 216 223 230 230 229 225 220 219 216 215 216 216 213 214 213 212 211 211 211 189 186 199 261 267 242 233 228 229 232 229 228 228 227 227 229
277 265 260 251 246 235 224 221 224 222 235 232 231 228 223 219 218 217 216 216 214 212 215 213 209 207 213 207 199 192 205 235 267 251 233 231 229 226 230 228 227 228 228
276 275 269 262 251 242 224 213 213 220 230 233 232 233 229 222 221 219 217 215 214 214 217 216 212 211 204 212 217 220 220 193 209 265 264 239 234 233 231 231 230 229 227
282 285 280 276 266 250 229 219 220 229 235 241 239 237 234 226 222 220 218 216 216 216 217 215 213 210 209 211 210 210 224 234 228 234 262 260 248 239 235 232 230 229 226
311 304 294 285 273 259 239 227 224 234 243 246 242 239 238 232 226 224 220 218 218 218 218 216 215 212 212 213 214 211 206 206 215 221 242 251 253 249 237 236 233 230 226
Height
1477 1479 1480 1482 1484 1486 1489 1491 1493 1494 1496 1498 1499 1500 1502 1503 1504 1505 1507 1508 1509 1510 1511 1512 1513 1514 1515 1515 1516 1517 1518 1519 1519 1520 1521 1521 1522 1522 1523 1523 1524 1524 1524
1477 1478 1480 1482 1484 1486 1488 1490 1492 1494 1496 1497 1499 1500 1501 1503 1504 1505 1506 1508 1509 1510 1511 1512 1513 1514 1515 1515 1516 1517 1518 1519 1519 1520 1521 1522 1522 1523 1523 1524 1524 1524 1525
1477 1478 1479 1481 1483 1485 1488 1490 1492 1494 1496 1497 1499 1500 1501 1502 1504 1505 1506 1507 1508 1510 1511 1512 1513 1513 1514 1515 1516 1517 1517 1518 1519 1520 1521 1522 1522 1523 1523 1524 1524 1525 1525
1477 1478 1479 1481 1483 1485 1487 1489 1491 1493 1495 1497 1498 1499 1501 1502 1503 1504 1506 1507 1508 1509 1510 1511 1512 1513 1514 1515 1516 1516 1517 1518 1519 1520 1521 1522 1522 1523 1523 1524 1524 1525 1525
1477 1477 1478 1480 1482 1484 1486 1489 1490 1492 1494 1496 1497 1499 1500 1501 1502 1503 1505 1506 1507 1508 1509 1511 1512 1513 1514 1515 1515 1516 1517 1518 1519 1520 1521 1521 1522 1523 1523 1524 1524 1525 1525
1476 1477 1478 1480 1481 1483 1486 1488 1489 1491 1493 1495 1496 1498 1499 1500 1501 1503 1504 1505 1506 1507 1508 1510 1511 1512 1513 1514 1515 1516 1516 1517 1518 1519 1520 1521 1522 1523 1523 1524 1524 1524 1525
1475 1476 1477 1479 1481 1483 1485 1486 1488 1490 1492 1493 1495 1496 1498 1499 1500 1502 1503 1504 1505 1506 1507 1508 1509 1510 1511 1513 1514 1515 1516 1516 1518 1519 1520 1521 1521 1522 1523 1523 1523 1524 1524
1475 1476 1477 1478 1480 1482 1483 1485 1487 1488 1490 1492 1493 1495 1496 1498 1499 1500 1501 1502 1504 1505 1506 1507 1508 1509 1510 1511 1512 1514 1515 1516 1517 1518 1519 1520 1521 1521 1522 1522 1523 1523 1524
1474 1475 1476 1477 1479 1481 1482 1484 1485 1487 1488 1490 1491 1493 1494 1496 1497 1498 1500 1501 1502 1503 1504 1506 1507 1508 1509 1510 1511 1512 1513 1514 1516 1517 1518 1519 1520 1521 1521 1522 1522 1523 1523
1472 1473 1474 1476 1477 1479 1480 1482 1483 1485 1486 1488 1489 1491 1492 1494 1495 1496 1498 1499 1500 1501 1503 1504 1505 1506 1507 1509 1510 1511 1512 1513 1514 1515 1516 1518 1518 1519 1520 1521 1521 1522 1522
1470 1471 1472 1473 1475 1476 1478 1479 1481 1483 1484 1486 1487 1489 1490 1491 1493 1494 1495 1496 1498 1499 1501 1502 1503 1504 1506 1507 1508 1509 1510 1511 1513 1514 1515 1516 1517 1518 1519 1519 1520 1520 1521
1466 1467 1469 1470 1472 1474 1475 1477 1478 1480 1481 1483 1484 1486 1487 1489 1490 1491 1492 1494 1495 1497 1498 1500 1501 1502 1503 1504 1506 1507 1508 1509 1510 1512 1513 1514 1515 1516 1517 1517 1518 1519 1519
1463 1464 1466 1467 1469 1470 1472 1473 1475 1476 1478 1479 1481 1483 1484 1486 1487 1488 1489 1491 1492 1494 1495 1497 1498 1499 1501 1502 1503 1504 1505 1506 1508 1509 1511 1512 1512 1513 1514 1515 1516 1516 1517
1460 1461 1462 1464 1465 1467 1468 1470 1471 1472 1474 1476 1477 1479 1481 1482 1483 1484 1486 1487 1489 1490 1492 1493 1494 1496 1498 1499 1500 1501 1502 1504 1505 1506 1508 1509 1510 1511 1512 1513 1513 1514 1514
1456 1457 1458 1460 1461 1463 1464 1465 1467 1468 1470 1472 1474 1475 1477 1478 1479 1481 1482 1484 1485 1487 1488 1489 1491 1493 1494 1495 1496 1498 1499 1500 1502 1503 1504 1506 1506 1507 1508 1509 1510 1511 1511
1452 1453 1454 1455 1457 1458 1459 1461 1462 1464 1466 1468 1469 1471 1473 1474 1475 1477 1478 1480 1481 1483 1484 1486 1487 1489 1490 1491 1492 1494 1495 1496 1497 1499 1500 1502 1503 1504 1505 1506 1507 1507 1508
1449 1449 1450 1451 1452 1453 1455 1456 1458 1459 1461 1463 1465 1466 1468 1469 1471 1472 1474 1475 1477 1479 1480 1482 1483 1485 1486 1487 1488 1489 1490 1492 1493 1494 1496 1497 1498 1499 1500 1501 1502 1503 1504
1446 1446 1446 1447 1448 1449 1450 1452 1453 1454 1456 1458 1460 1461 1463 1464 1466 1467 1469 1470 1472 1474 1475 1477 1478 1479 1481 1482 1483 1484 1486 1487 1487 1489 1491 1492 1493 1494 1495 1496 1497 1498 1499
1442 1442 1442 1443 1444 1445 1446 1447 1448 1450 1451 1453 1455 1456 1457 1459 1460 1462 1463 1465 1467 1469 1470 1472 1473 1474 1475 1477 1478 1479 1480 1481 1482 1484 1485 1486 1487 1488 1490 1491 1492 1493 1494
1438 1439 1439 1439 1439 1441 1442 1443 1444 1445 1446 1448 1449 1450 1452 1453 1455 1456 1457 1459 1461 1463 1464 1466 1467 1469 1470 1472 1473 1473 1474 1475 1477 1477 1479 1480 1481 1482 1483 1485 1486 1487 1488
1435 1435 1435 1435 1436 1437 1437 1438 1439 1440 1441 1442 1444 1445 1446 1448 1449 1450 1451 1453 1455 1456 1457 1460 1461 1463 1464 1467 1468 1467 1468 1469 1470 1470 1472 1473 1474 1475 1477 1478 1479 1481 1482
1432 1432 1432 1432 1433 1432 1433 1434 1435 1435 1436 1437 1438 1439 1441 1442 1443 1444 1445 1446 1448 1449 1451 1453 1455 1456 1458 1461 1462 1462 1461 1462 1461 1463 1465 1466 1467 1469 1470 1471 1472 1474 1475
1428 1429 1429 1429 1429 1429 1429 1430 1430 1431 1431 1432 1432 1433 1434 1435 1436 1438 1439 1440 1442 1443 1444 1446 1448 1449 1451 1454 1456 1457 1457 1455 1455 1456 1457 1458 1460 1461 1462 1464 1465 1466 1468
1426 1426 1426 1425 1425 1425 1425 1425 1425 1424 1424 1424 1426 1426 1428 1429 1430 1431 1432 1434 1435 1436 1437 1438 1440 1442 1444 1446 1448 1450 1451 1451 1451 1449 1450 1451 1453 1454 1455 1457 1458 1459 1460
1424 1423 1423 1422 1422 1421 1421 1420 1420 1420 1420 1420 1420 1421 1421 1422 1423 1424 1425 1426 1427 1429 1430 1432 1433 1435 1436 1438 1440 1441 1443 1444 1445 1445 1443 1443 1445 1446 1448 1449 1450 1451 1452
1421 1421 1420 1419 1418 1417 1416 1415 1415 1415 1414 1414 1414 1414 1414 1415 1415 1417 1418 1419 1420 1421 1422 1424 1425 1427 1428 1430 1432 1433 1435 1436 1436 1438 1437 1436 1437 1438 1440 1441 1443 1444 1444